N8IR-19 Weather Reports


time (UTC)temp
F
wind
direction
speed
knots
gust
knots
rain 1hr
in
rain 24hr
in
rain mn
in
humidity
%
barometer
mb
20260503224938 61 248 13.9 15.6 0.00 0.00 0.00 30 991.5
20260503224418 61 225 13.0 16.5 0.00 0.00 0.00 32 991.6
20260503223918 61 225 13.0 17.4 0.00 0.00 0.00 29 991.6
20260503223418 61 225 13.0 19.1 0.00 0.00 0.00 32 991.6
20260503222917 61 225 13.9 19.1 0.00 0.00 0.00 31 991.6
20260503222418 61 225 13.9 17.4 0.00 0.00 0.00 31 991.7
20260503221918 61 225 15.6 20.0 0.00 0.00 0.00 31 991.6
20260503221417 61 225 15.6 18.2 0.00 0.00 0.00 29 991.6
20260503220918 61 225 13.9 17.4 0.00 0.00 0.00 31 991.6
20260503220417 61 225 15.6 17.4 0.00 0.00 0.00 32 991.6
20260503215918 61 225 20.9 24.3 0.00 0.00 0.00 31 991.6
20260503215418 61 225 15.6 20.0 0.00 0.00 0.00 30 991.7
20260503214918 61 248 9.6 13.9 0.00 0.00 0.00 31 991.8
20260503214417 61 225 19.1 21.7 0.00 0.00 0.00 31 991.6
20260503213917 61 225 17.4 23.5 0.00 0.00 0.00 29 991.5
20260503213418 61 225 20.0 26.1 0.00 0.00 0.00 31 991.7
20260503212917 61 225 20.0 26.1 0.00 0.00 0.00 30 991.6
20260503212417 61 225 15.6 20.0 0.00 0.00 0.00 30 991.8
20260503211938 61 225 14.8 19.1 0.00 0.00 0.00 29 991.7
20260503211417 61 225 20.9 27.8 0.00 0.00 0.00 31 991.6
20260503210918 61 225 21.7 28.7 0.00 0.00 0.00 29 991.8
20260503210458 61 225 13.9 15.6 0.00 0.00 0.00 32 991.9
20260503205918 61 225 13.9 16.5 0.00 0.00 0.00 29 991.9
20260503205437 61 225 11.3 15.6 0.00 0.00 0.00 30 992.0
20260503204917 61 225 10.4 13.0 0.00 0.00 0.00 28 991.9
20260503204439 61 225 20.9 24.3 0.00 0.00 0.00 31 991.9
20260503203917 61 248 11.3 15.6 0.00 0.00 0.00 30 992.1
20260503203438 61 225 12.2 14.8 0.00 0.00 0.00 30 992.0
20260503202917 61 225 12.2 15.6 0.00 0.00 0.00 30 992.0
20260503202457 61 225 8.7 11.3 0.00 0.00 0.00 29 992.2
20260503201917 61 225 20.0 22.6 0.00 0.00 0.00 29 991.9
20260503201417 62 225 18.2 24.3 0.00 0.00 0.00 30 992.0
20260503200917 62 225 18.2 23.5 0.00 0.00 0.00 30 992.1
20260503200417 62 225 15.6 21.7 0.00 0.00 0.00 31 992.2
20260503195917 61 225 21.7 26.9 0.00 0.00 0.00 31 992.2
20260503195417 61 225 19.1 23.5 0.00 0.00 0.00 30 992.2
20260503194917 61 225 11.3 13.9 0.00 0.00 0.00 28 992.4
20260503194419 61 225 18.2 25.2 0.00 0.00 0.00 32 992.5
20260503193917 61 225 16.5 18.2 0.00 0.00 0.00 30 992.5
20260503193417 61 248 14.8 17.4 0.00 0.00 0.00 30 992.5
20260503192919 61 225 12.2 14.8 0.00 0.00 0.00 31 992.7
20260503192419 61 225 13.0 16.5 0.00 0.00 0.00 28 992.8
20260503191917 62 225 19.1 25.2 0.00 0.00 0.00 32 992.9
20260503191417 61 225 16.5 20.9 0.00 0.00 0.00 32 992.8
20260503190940 61 225 18.2 24.3 0.00 0.00 0.00 32 992.9
20260503190419 61 225 19.1 21.7 0.00 0.00 0.00 31 992.9
20260503185918 61 225 17.4 21.7 0.00 0.00 0.00 31 993.0
20260503185419 61 225 16.5 21.7 0.00 0.00 0.00 31 993.2
20260503184917 61 225 17.4 20.9 0.00 0.00 0.00 31 993.2
20260503184420 61 225 13.9 18.2 0.00 0.00 0.00 30 993.3
20260503183917 61 225 19.1 22.6 0.00 0.00 0.00 33 993.4
20260503183419 61 225 19.1 22.6 0.00 0.00 0.00 33 993.3
20260503182917 61 225 17.4 20.9 0.00 0.00 0.00 31 993.4
20260503182418 60 225 21.7 26.1 0.00 0.00 0.00 31 993.4
20260503181919 61 225 10.4 13.0 0.00 0.00 0.00 30 993.7
20260503181417 60 225 8.7 10.4 0.00 0.00 0.00 28 993.7
20260503180938 60 225 12.2 13.9 0.00 0.00 0.00 28 993.8
20260503180417 60 248 13.0 16.5 0.00 0.00 0.00 31 993.9
20260503175940 60 225 15.6 20.0 0.00 0.00 0.00 32 994.1
20260503175439 60 248 14.8 17.4 0.00 0.00 0.00 31 994.0
20260503174918 60 225 15.6 18.2 0.00 0.00 0.00 33 994.1
20260503174417 60 225 16.5 19.1 0.00 0.00 0.00 34 994.1
20260503173917 60 248 9.6 12.2 0.00 0.00 0.00 31 994.2
20260503173417 60 225 14.8 26.1 0.00 0.00 0.00 32 994.2
20260503172917 59 225 13.9 15.6 0.00 0.00 0.00 36 994.3
20260503172417 59 248 7.0 7.8 0.00 0.00 0.00 34 994.4
20260503171917 59 248 9.6 14.8 0.00 0.00 0.00 35 994.5
20260503171417 59 248 7.8 10.4 0.00 0.00 0.00 36 994.6
20260503170917 58 225 8.7 12.2 0.00 0.00 0.00 34 994.6
20260503170417 59 225 8.7 10.4 0.00 0.00 0.00 34 994.7
20260503150937 54 248 14.8 16.5 0.00 0.00 0.00 42 995.7
20260503150417 53 248 8.7 12.2 0.00 0.00 0.00 40 995.8
20260503130920 48 225 12.2 15.6 0.00 0.00 0.00 45 996.2
20260503130417 48 225 12.2 16.5 0.00 0.00 0.00 45 996.2
20260503110419 39 203 5.2 7.0 0.00 0.00 0.00 56 996.3
20260503090418 40 225 7.0 7.8 0.00 0.04 0.00 56 996.3
20260503081418 40 225 7.0 7.8 0.00 0.21 0.00 54 996.4
20260503080938 40 225 7.0 7.8 0.00 0.22 0.00 55 996.5
20260503080418 40 225 6.1 7.8 0.00 0.23 0.00 55 996.4
20260503072918 41 225 7.0 8.7 0.00 0.31 0.00 54 996.4
20260503072418 41 225 7.0 8.7 0.00 0.32 0.00 54 996.4
20260503071918 41 225 7.0 8.7 0.00 0.33 0.00 54 996.4
20260503071418 41 225 7.8 9.6 0.00 0.33 0.00 54 996.5
20260503070918 41 225 7.0 8.7 0.00 0.33 0.00 54 996.5
20260503070438 41 225 7.8 10.4 0.00 0.33 0.00 54 996.5
20260503054938 42 225 6.1 7.8 0.00 0.33 0.00 55 996.8
20260503054459 42 225 6.1 7.0 0.00 0.33 0.00 55 996.7
20260503053918 42 225 6.1 7.8 0.00 0.33 0.00 55 996.8
20260503053438 42 225 7.0 7.8 0.00 0.33 0.00 55 996.8
20260503052917 42 225 6.1 7.0 0.00 0.33 0.00 55 996.7
20260503052419 42 225 6.1 7.8 0.00 0.33 0.00 55 996.8
20260503051918 42 225 6.1 7.0 0.00 0.33 0.00 55 996.8
20260503051417 42 225 5.2 7.8 0.00 0.33 0.00 55 996.9
20260503050918 42 225 5.2 7.0 0.00 0.33 0.00 54 996.8
20260503050441 42 203 5.2 7.0 0.00 0.33 0.00 54 996.8
20260503045918 43 225 5.2 6.1 0.00 0.33 0.00 54 996.8
20260503045417 43 203 5.2 6.1 0.00 0.33 0.00 54 996.8
20260503044919 43 225 6.1 7.0 0.00 0.33 0.00 54 996.8
20260503044420 43 225 5.2 6.1 0.00 0.33 0.00 53 996.9
20260503043940 43 203 5.2 7.0 0.00 0.33 0.00 53 996.9
20260503043417 43 225 5.2 6.1 0.00 0.33 0.00 53 996.8
20260503042917 43 203 5.2 6.1 0.00 0.33 0.00 53 996.8
20260503042420 43 225 5.2 6.1 0.00 0.33 0.00 53 996.8
20260503041918 43 203 4.3 6.1 0.00 0.33 0.00 52 996.9
20260503041440 43 225 5.2 6.1 0.00 0.33 0.00 52 996.9
20260503040920 44 225 5.2 7.0 0.00 0.33 0.00 52 996.9
20260503040420 44 203 4.3 6.1 0.00 0.33 0.00 51 996.9
20260503035920 44 225 5.2 6.1 0.00 0.33 0.33 51 996.9
20260503035420 44 225 5.2 6.1 0.00 0.33 0.33 50 997.0
20260503034918 44 225 5.2 6.1 0.00 0.33 0.33 50 996.9
20260503034417 44 225 4.3 6.1 0.00 0.33 0.33 50 997.0
20260503033920 44 225 6.1 7.0 0.00 0.33 0.33 50 996.9
20260503033417 44 225 5.2 6.1 0.00 0.33 0.33 50 996.9
20260503032920 45 225 6.1 7.0 0.00 0.33 0.33 50 996.9
20260503032419 45 225 7.0 7.8 0.00 0.33 0.33 50 997.0
20260503031918 45 225 7.0 8.7 0.00 0.33 0.33 50 996.9
20260503031439 45 225 7.0 8.7 0.00 0.33 0.33 50 997.0
20260503030918 45 203 7.0 8.7 0.00 0.33 0.33 50 997.0
20260503030422 45 225 6.1 7.0 0.00 0.33 0.33 50 997.1
20260503025920 45 225 7.0 7.8 0.00 0.33 0.33 50 997.1
20260503025418 45 203 4.3 6.1 0.00 0.33 0.33 50 997.1
20260503024918 45 203 4.3 6.1 0.00 0.33 0.33 50 997.2
20260503024418 45 203 6.1 8.7 0.00 0.33 0.33 50 997.2
20260503023917 45 225 7.0 7.8 0.00 0.33 0.33 50 997.2
20260503023417 45 225 5.2 6.1 0.00 0.33 0.33 49 997.3
20260503022917 45 203 3.5 7.0 0.00 0.33 0.33 50 997.2
20260503022419 45 225 5.2 7.0 0.00 0.33 0.33 49 997.2
20260503021919 45 203 2.6 4.3 0.00 0.33 0.33 49 997.2
20260503021417 45 203 4.3 7.0 0.00 0.33 0.33 49 997.2
20260503020918 45 203 4.3 6.1 0.00 0.33 0.33 48 997.3
20260503020418 45 203 3.5 6.1 0.00 0.34 0.33 48 997.1
20260503015919 45 203 3.5 6.1 0.00 0.34 0.33 49 997.3
20260503015419 45 203 1.7 3.5 0.00 0.34 0.33 48 997.2
20260503014918 45 203 2.6 4.3 0.00 0.34 0.33 48 997.2
20260503014438 45 180 1.7 2.6 0.00 0.34 0.33 48 997.2
20260503013917 45 203 1.7 2.6 0.00 0.34 0.33 48 997.2
20260503013417 45 180 1.7 2.6 0.00 0.34 0.33 47 997.2
20260503012917 45 180 3.5 7.0 0.00 0.34 0.33 47 997.1
20260503012418 46 180 4.3 6.1 0.00 0.34 0.33 46 997.2
20260503011919 46 203 1.7 4.3 0.00 0.34 0.33 46 997.1
20260503011417 46 180 1.7 4.3 0.00 0.34 0.33 45 997.2
20260503010917 46 180 0.9 2.6 0.00 0.34 0.33 45 997.1
20260503010418 46 180 1.7 4.3 0.00 0.34 0.33 44 997.1
20260503005919 46 180 2.6 3.5 0.00 0.34 0.33 44 997.1
20260503005417 46 180 5.2 6.1 0.00 0.34 0.33 44 997.1
20260503004938 46 180 3.5 4.3 0.00 0.34 0.33 44 997.1
20260503004418 46 180 2.6 3.5 0.00 0.34 0.33 44 997.1
20260503003917 46 180 3.5 3.5 0.00 0.34 0.33 44 997.0
20260503003418 46 203 1.7 2.6 0.00 0.34 0.33 43 997.0
20260503002918 46 203 1.7 4.3 0.00 0.34 0.33 43 997.0
20260503002418 46 203 2.6 4.3 0.00 0.34 0.33 43 997.0
20260503001918 46 225 0.9 1.7 0.00 0.34 0.33 42 997.0
20260503001418 46 225 1.7 2.6 0.00 0.34 0.33 44 997.0
20260503000918 46 225 1.7 2.6 0.00 0.34 0.33 44 997.1
20260503000417 46 225 1.7 3.5 0.00 0.34 0.33 43 997.0
20260502235917 46 203 3.5 4.3 0.00 0.34 0.33 43 997.1
20260502235417 46 225 4.3 5.2 0.00 0.34 0.33 44 997.0
20260502234958 46 225 3.5 4.3 0.00 0.34 0.33 43 997.0
20260502234417 46 225 4.3 5.2 0.00 0.34 0.33 44 997.0
20260502233917 46 225 5.2 6.1 0.00 0.34 0.33 43 996.9
20260502233418 46 225 3.5 4.3 0.00 0.34 0.33 43 997.0
20260502232938 46 225 4.3 5.2 0.00 0.34 0.33 43 997.0
20260502232417 47 225 2.6 3.5 0.00 0.34 0.33 43 997.0
20260502231918 47 225 3.5 4.3 0.00 0.34 0.33 43 997.0
20260502231418 47 225 3.5 4.3 0.00 0.34 0.33 44 997.0
20260502230917 47 225 5.2 6.1 0.00 0.34 0.33 41 997.0
20260502230437 47 248 1.7 2.6 0.00 0.34 0.33 39 997.1
20260502225935 47 225 4.3 5.2 0.00 0.34 0.33 41 997.0
20260502225418 47 270 1.7 2.6 0.00 0.34 0.33 38 997.0